Tracking 18852 objects as of 24-Nov-2017
HD Live streaming from Space Station
objects crossing your sky now

CZ-3B DEB

Track CZ-3B DEB now!


NORAD ID: 40167
Int'l Code: 2010-042U
Perigee: 1,344.5 km
Apogee: 40,297.5 km
Inclination: 27.1 °
Period: 743.7 minutes
Semi major axis: 27191 km
RCS: Unknown
Launch date: September 4, 2010
Source: People's Republic of China (PRC)
Launch site: Xichang Space Center, China (XSC)

Note: This is SATELLITE DEBRIS
aabbcc
Your satellite tracking list
Your tracking list is empty




NASA's NSSDC Master Catalog

Two Line Element Set (TLE):
1 40167U 10042U   17327.11108164 -.00000133  00000-0  00000+0 0  9994
2 40167  27.1317 307.3194 7162589 156.8877 266.3846  1.93616350 35959
Source of the keplerian elements: AFSPC